STARLINK-32441, 61668

Orbit data source: Space-Track

STARLINK-32441, 61668 is a payload satellite owned by SpaceX/Seattle (US) in LEO that was launched on Sat, 26 Oct 2024 UTC via an FALCON 9 launch vehicle from the Air Force Eastern Test Range (AFETR). Payload-class satellites include a variety of spacecraft equipped with specific instruments for various scientific and technological missions. These include communications satellites like Starlink; space stations such as the ISS; scientific satellites like the Hubble; Earth observation satellites from companies like Planet Labs, Umbra, and HawkEye 360; GPS; miniature CubeSats for education and research; and military/defense satellites.

Loading next visibility...
Identifier
61668, 2024-193H
Orbit
LEO
Country
Flag of USUS
Related business
Manufacturer
SpaceX/Seattle
Mission
Operational Commercial Communications
Bus & Motor
STARLINK V2M, Unknown motor
Mass
730 kg wet, ~700 kg dry
Launch date (UTC)
2024-10-26 (11 months ago)
Launch vehicle
FALCON 9
Launch site
Air Force Eastern Test Range (AFETR)
Object type
Payload
Rocket body
Debris
Shape & HBR
Box + 2 Pan, 14.5 m
Radar Cross Section
36.964 m², Large (>1 m²)

Expand to show TLE details & history
Last TLE update: 17 hours ago

TLE from 17 hours ago
0 STARLINK-32441
1 61668U 24193H   25260.13894481 -.00000725  00000-0 -12370-4 0  9992
2 61668  53.1605 177.2475 0000811  78.1765 281.9327 15.30195042 49955
Epoch: 2025-09-17T03:20Z
TLE epoch observation values (Epoch: 2025-09-17T03:20:04.831Z)
Latitude
-0°
Longitude
130.90818°
Altitude
476.015 km
Speed
7.629 km/s
True Right ascension
11h 48m 59s
True Declination
0° 00' 00"
Sunlit
Object was in daylight at epoch
Visualization orbit readout
Latitude
Unknown
Longitude
Unknown
Altitude
Unknown
Speed
Unknown
Apparent Right ascension
Unknown
Apparent Declination
Unknown
Sunlit
N/A
Visualization observer readout
Local Sidereal Time
12:47:49
Azimuth
Unknown
Elevation
Unknown
Doppler factor
Unknown
Orbital elements
Apogee altitude
476.042 km
Perigee altitude
474.93 km
Semi-major axis
6,853.623 km
Eccentricity
0.00008
Inclination
53.1605°
RAAN
177.2475°
Arg. of periapsis
78.1765°
True anomaly
281.92361°
Mean anomaly
281.9327°
Eccentric anomaly
281.92815°
Mean motion
3.82528 °/min
Orbital period
94.11 mins
BSTAR
-0.00001237
Loading maneuver chart data...
Computing Atmospheric mass density...
Loading historical data...
Loading historical data...
Loading historical data...
Loading historical data...
Loading historical data...
Loading historical data...
Loading historical data...

Documentation

Showing up to 5 results
|